Weather History for KBPC - February, 2012

Change the Weather History Date:

Sunday, February 19, 2012

  Actual Average (KBGD) Record (KBGD)
Temperature  
Mean Temperature 42 °F 43 °F  
Max Temperature 53 °F 55 °F 81 °F (2011)
Min Temperature 32 °F 30 °F 11 °F (1978)
Degree Days  
Heating Degree Days 22 22  
Month to date heating degree days 451  
Since 1 July heating degree days 2803  
Cooling Degree Days 0 0  
Month to date cooling degree days 0  
Year to date cooling degree days 0  
Moisture  
Dew Point 36 °F    
Average Humidity 83    
Maximum Humidity 100    
Minimum Humidity 58    
Precipitation  
Precipitation 0.00 in 0.02 in 0.37 in (1998)
Month to date precipitation 0.45  
Year to date precipitation 1.04  
Snow  
Snow 0.00 in - 3.50 in (1987)
Month to date snowfall  
Since 1 July snowfall  
Snow Depth -    
Sea Level Pressure  
Sea Level Pressure 29.94 in    
Wind  
Wind Speed 9 mph (South)    
Max Wind Speed 23 mph    
Max Gust Speed 32 mph    
Visibility 9 miles    
Events      
T = Trace of Precipitation, MM = Missing Value Source: NWS Daily Summary

Daily Weather History Graph

Daily Weather History Graph

Search for Another Location

Airport or City:

Trip Planner

Search our weather history database for the weather conditions in past years. The results will help you decide how hot, cold, wet, or windy it might be!

Date:

Astronomy

Feb. 19, 2012 Rise Set
Actual Time 7:27 AM CST 6:29 PM CST
Civil Twilight 7:01 AM CST 6:55 PM CST
Nautical Twilight 6:31 AM CST 7:25 PM CST
Astronomical Twilight 6:01 AM CST 7:54 PM CST
Moon 5:46 AM CST (2/19) 4:34 PM CST (2/19)
Length of Visible Light 11h 54m
Length of Day
11h 02m
Waning Crescent, 5% of the Moon is Illuminated
Feb 19
Waning Crescent
Feb 21
New
Feb 29
First Quarter
Mar 8
Full
Mar 14
Last Quarter

Hourly Weather History & Observations

Time (CST) Temp. Windchill Dew Point Humidity Pressure Visibility Wind Dir Wind Speed Gust Speed Precip Events Conditions
12:15 AM 35.6 °F - 33.8 °F 93% 30.07 in 5.0 mi Calm Calm - N/A   Overcast
12:35 AM 35.6 °F 32.8 °F 33.8 °F 93% 30.07 in 7.0 mi SSE 3.5 mph - N/A   Overcast
12:55 AM 35.6 °F - 33.8 °F 93% 30.07 in 7.0 mi Calm Calm - N/A   Overcast
1:15 AM 35.6 °F - 35.6 °F 100% 30.06 in 7.0 mi Calm Calm - N/A   Overcast
1:35 AM 33.8 °F 29.6 °F 33.8 °F 100% 30.06 in 7.0 mi ESE 4.6 mph - N/A   Scattered Clouds
2:15 AM 33.8 °F 30.8 °F 32.0 °F 93% 30.05 in 5.0 mi West 3.5 mph - N/A   Mostly Cloudy
2:35 AM 33.8 °F - 33.8 °F 100% 30.05 in 10.0 mi Calm Calm - N/A   Mostly Cloudy
2:55 AM 33.8 °F 27.7 °F 33.8 °F 100% 30.06 in 4.0 mi WSW 6.9 mph - N/A   Overcast
3:15 AM 32.0 °F 23.6 °F 32.0 °F 100% 30.06 in 5.0 mi WSW 10.4 mph - N/A   Overcast
3:35 AM 32.0 °F 26.4 °F 32.0 °F 100% 30.05 in 2.5 mi SW 5.8 mph - N/A   Overcast
3:55 AM 32.0 °F 27.5 °F 32.0 °F 100% 30.04 in 5.0 mi SW 4.6 mph - N/A   Overcast
4:15 AM 33.8 °F 27.0 °F 32.0 °F 93% 30.03 in 5.0 mi SSW 8.1 mph - N/A   Overcast
4:35 AM 33.8 °F 29.6 °F 33.8 °F 100% 30.03 in 7.0 mi SSW 4.6 mph - N/A   Overcast
5:15 AM 33.8 °F 29.6 °F 33.8 °F 100% 30.01 in 5.0 mi South 4.6 mph - N/A   Overcast
5:35 AM 35.6 °F 29.9 °F 35.6 °F 100% 30.01 in 7.0 mi SSW 6.9 mph - N/A   Overcast
5:55 AM 35.6 °F 29.2 °F 35.6 °F 100% 30.01 in 7.0 mi SSW 8.1 mph - N/A   Overcast
6:15 AM 35.6 °F 29.2 °F 35.6 °F 100% 30.01 in 7.0 mi South 8.1 mph - N/A   Overcast
6:35 AM 37.4 °F 31.4 °F 35.6 °F 93% 30.01 in 7.0 mi South 8.1 mph - N/A   Overcast
7:15 AM 37.4 °F 30.8 °F 35.6 °F 93% 30.00 in 10.0 mi South 9.2 mph - N/A   Overcast
7:35 AM 37.4 °F 30.8 °F 35.6 °F 93% 29.99 in 7.0 mi South 9.2 mph - N/A   Overcast
8:15 AM 37.4 °F 30.3 °F 35.6 °F 93% 30.00 in 7.0 mi South 10.4 mph - N/A   Overcast
8:35 AM 37.4 °F 29.8 °F 35.6 °F 93% 30.00 in 7.0 mi South 11.5 mph - N/A   Overcast
8:55 AM 39.2 °F 31.2 °F 35.6 °F 87% 30.00 in 10.0 mi South 13.8 mph - N/A   Overcast
9:15 AM 41.0 °F 34.3 °F 35.6 °F 81% 30.01 in 10.0 mi South 11.5 mph - N/A   Overcast
9:35 AM 41.0 °F 34.3 °F 37.4 °F 87% 30.00 in 10.0 mi South 11.5 mph - N/A   Overcast
9:55 AM 41.0 °F 33.1 °F 37.4 °F 87% 30.01 in 10.0 mi SSW 15.0 mph - N/A   Overcast
10:15 AM 41.0 °F 32.8 °F 37.4 °F 87% 30.01 in 10.0 mi South 16.1 mph 21.9 mph N/A   Overcast
10:35 AM 42.8 °F 35.1 °F 37.4 °F 81% 30.00 in 10.0 mi South 16.1 mph - N/A   Overcast
10:55 AM 42.8 °F 35.8 °F 37.4 °F 81% 29.99 in 10.0 mi South 13.8 mph 18.4 mph N/A   Overcast
11:15 AM 44.6 °F 36.9 °F 37.4 °F 76% 29.98 in 10.0 mi SSW 18.4 mph 24.2 mph N/A   Overcast
11:35 AM 44.6 °F 37.2 °F 37.4 °F 76% 29.98 in 10.0 mi SSW 17.3 mph 25.3 mph N/A   Overcast
12:55 PM 50.0 °F - 39.2 °F 66% 29.93 in 10.0 mi South 19.6 mph 26.5 mph N/A   Overcast
1:15 PM 50.0 °F - 39.2 °F 66% 29.92 in 10.0 mi South 17.3 mph 27.6 mph N/A   Mostly Cloudy
1:35 PM 50.0 °F - 39.2 °F 66% 29.91 in 10.0 mi South 23.0 mph 32.2 mph N/A   Mostly Cloudy
1:55 PM 51.8 °F - 39.2 °F 62% 29.89 in 10.0 mi SSW 23.0 mph 29.9 mph N/A   Mostly Cloudy
2:15 PM 51.8 °F - 39.2 °F 62% 29.88 in 10.0 mi SSW 23.0 mph 32.2 mph N/A   Mostly Cloudy
2:35 PM 51.8 °F - 37.4 °F 58% 29.87 in 10.0 mi South 19.6 mph 28.8 mph N/A   Mostly Cloudy
2:55 PM 51.8 °F - 39.2 °F 62% 29.86 in 10.0 mi South 23.0 mph 28.8 mph N/A   Scattered Clouds
3:15 PM 51.8 °F - 39.2 °F 62% 29.85 in 10.0 mi South 20.7 mph 32.2 mph N/A   Scattered Clouds
3:35 PM 53.6 °F - 39.2 °F 58% 29.84 in 10.0 mi South 21.9 mph 26.5 mph N/A   Scattered Clouds
4:15 PM 53.6 °F - 39.2 °F 58% 29.82 in 10.0 mi South 21.9 mph 29.9 mph N/A   Clear
4:35 PM 51.8 °F - 39.2 °F 62% 29.82 in 10.0 mi South 20.7 mph 29.9 mph N/A   Clear
4:55 PM 51.8 °F - 39.2 °F 62% 29.82 in 10.0 mi South 17.3 mph 27.6 mph N/A   Mostly Cloudy
5:15 PM 50.0 °F - 37.4 °F 62% 29.81 in 10.0 mi South 20.7 mph 28.8 mph N/A   Mostly Cloudy
5:35 PM 50.0 °F - 39.2 °F 66% 29.81 in 10.0 mi South 17.3 mph 21.9 mph N/A   Scattered Clouds
5:55 PM 46.4 °F 40.1 °F 37.4 °F 71% 29.81 in 10.0 mi South 15.0 mph 21.9 mph N/A   Scattered Clouds
6:15 PM 46.4 °F 39.5 °F 37.4 °F 71% 29.81 in 10.0 mi South 17.3 mph 26.5 mph N/A   Scattered Clouds
6:35 PM 44.6 °F 37.8 °F 37.4 °F 76% 29.82 in 10.0 mi South 15.0 mph - N/A   Clear
6:55 PM 44.6 °F 37.2 °F 37.4 °F 76% 29.80 in 10.0 mi SSE 17.3 mph 23.0 mph N/A   Clear
7:15 PM 42.8 °F 35.4 °F 37.4 °F 81% 29.80 in 10.0 mi SSE 15.0 mph 21.9 mph N/A   Clear
7:35 PM 42.8 °F 34.8 °F 37.4 °F 81% 29.79 in 10.0 mi SSE 17.3 mph 23.0 mph N/A   Clear
7:55 PM 42.8 °F 35.4 °F 37.4 °F 81% 29.80 in 10.0 mi South 15.0 mph 24.2 mph N/A   Scattered Clouds
8:15 PM 41.0 °F 33.1 °F 37.4 °F 87% 29.79 in 10.0 mi South 15.0 mph 21.9 mph N/A   Mostly Cloudy
8:35 PM 41.0 °F 32.8 °F 37.4 °F 87% 29.80 in 10.0 mi South 16.1 mph 23.0 mph N/A   Scattered Clouds
8:55 PM 41.0 °F 33.9 °F 37.4 °F 87% 29.80 in 10.0 mi South 12.7 mph 25.3 mph N/A   Mostly Cloudy
9:15 PM 41.0 °F 33.9 °F 37.4 °F 87% 29.80 in 10.0 mi South 12.7 mph 20.7 mph N/A   Overcast
9:35 PM 41.0 °F 34.3 °F 37.4 °F 87% 29.79 in 10.0 mi South 11.5 mph 24.2 mph N/A   Overcast
9:55 PM 41.0 °F 32.2 °F 37.4 °F 87% 29.79 in 10.0 mi South 18.4 mph 25.3 mph N/A   Overcast
10:15 PM 42.8 °F 35.4 °F 37.4 °F 81% 29.80 in 10.0 mi South 15.0 mph 27.6 mph N/A   Overcast
10:35 PM 42.8 °F 36.6 °F 37.4 °F 81% 29.80 in 10.0 mi South 11.5 mph 25.3 mph N/A   Overcast
10:55 PM 42.8 °F 36.6 °F 37.4 °F 81% 29.80 in 10.0 mi South 11.5 mph 23.0 mph N/A   Overcast
11:15 PM 42.8 °F 35.1 °F 39.2 °F 87% 29.80 in 10.0 mi South 16.1 mph 26.5 mph N/A   Overcast
11:35 PM 42.8 °F 34.5 °F 39.2 °F 87% 29.79 in 10.0 mi South 18.4 mph 31.1 mph N/A   Overcast
11:55 PM 42.8 °F 33.1 °F 41.0 °F 93% 29.77 in 10.0 mi South 25.3 mph 35.7 mph N/A   Overcast